,,,PA_Meas_PMT16A,,PR_Meas_QMR101_102,,RH_Meas_QMH101,,SR_Meas_QMS101,,TA_Meas_QMH101,,GenWind,,GenWind,
date,time,status,PA,status,PR,status,RH,status,SR,status,TA,status,DirAvg,status,SpdAvg,
2014-12-29, 00:00:04,VALID,1010.73,VALID,0,INVALID,136.326,VALID,0,VALID,23.4017,VALID,83,VALID,0,
2014-12-29, 00:01:04,VALID,1010.74,VALID,0,INVALID,136.371,VALID,0,VALID,23.4017,VALID,83,VALID,0,
2014-12-29, 00:02:04,VALID,1010.68,VALID,0,INVALID,136.379,VALID,0,VALID,23.4017,VALID,83,VALID,0,
2014-12-29, 00:03:04,VALID,1010.71,VALID,0,INVALID,136.432,VALID,0,VALID,23.4017,VALID,83,VALID,0,
2014-12-29, 00:04:04,VALID,1010.7,VALID,0,INVALID,136.47,VALID,0,VALID,23.3823,VALID,83,VALID,0,
2014-12-29, 00:05:04,VALID,1010.68,VALID,0,INVALID,136.47,VALID,0,VALID,23.3823,VALID,83,VALID,0,
2014-12-29, 00:06:04,VALID,1010.65,VALID,0,INVALID,136.531,VALID,0,VALID,23.3823,VALID,83,VALID,0,
2014-12-29, 00:07:04,VALID,1010.64,VALID,0,INVALID,136.608,VALID,0,VALID,23.4035,VALID,83,VALID,0,
2014-12-29, 00:08:04,VALID,1010.63,VALID,0,INVALID,136.608,VALID,0,VALID,23.4035,VALID,83,VALID,0,
2014-12-29, 00:09:04,VALID,1010.57,VALID,0,INVALID,136.692,VALID,0,VALID,23.384,VALID,83,VALID,0,
2014-12-29, 00:10:04,VALID,1010.58,VALID,0,INVALID,136.692,VALID,0,VALID,23.3628,VALID,83,VALID,0,
2014-12-29, 00:11:04,VALID,1010.56,VALID,0,INVALID,136.745,VALID,0,VALID,23.3433,VALID,83,VALID,0,
2014-12-29, 00:12:04,VALID,1010.54,VALID,0,INVALID,136.753,VALID,0,VALID,23.384,VALID,83,VALID,0,
2014-12-29, 00:13:04,VALID,1010.52,VALID,0,INVALID,136.776,VALID,0,VALID,23.3433,VALID,83,VALID,0,
2014-12-29, 00:14:04,VALID,1010.5,VALID,0,INVALID,136.791,VALID,0,VALID,23.3238,VALID,83,VALID,0,
2014-12-29, 00:15:04,VALID,1010.48,VALID,0,INVALID,136.814,VALID,0,VALID,23.3433,VALID,83,VALID,0,
2014-12-29, 00:16:04,VALID,1010.46,VALID,0,INVALID,136.76,VALID,0,VALID,23.3433,VALID,83,VALID,0,
2014-12-29, 00:17:04,VALID,1010.47,VALID,0,INVALID,136.783,VALID,0,VALID,23.3238,VALID,83,VALID,0,
2014-12-29, 00:18:04,VALID,1010.44,VALID,0,INVALID,136.76,VALID,0,VALID,23.3238,VALID,83,VALID,0,
2014-12-29, 00:19:04,VALID,1010.4,VALID,0,INVALID,136.737,VALID,0,VALID,23.3238,VALID,83,VALID,0,
2014-12-29, 00:20:04,VALID,1010.41,VALID,0,INVALID,136.676,VALID,0,VALID,23.3238,VALID,83,VALID,0,
2014-12-29, 00:21:04,VALID,1010.39,VALID,0,INVALID,136.638,VALID,0,VALID,23.3645,VALID,83,VALID,0,
2014-12-29, 00:22:04,VALID,1010.35,VALID,0,INVALID,136.562,VALID,0,VALID,23.3433,VALID,83,VALID,0,
2014-12-29, 00:23:04,VALID,1010.37,VALID,0,INVALID,136.524,VALID,0,VALID,23.384,VALID,83,VALID,0,
2014-12-29, 00:24:04,VALID,1010.33,VALID,0,INVALID,136.478,VALID,0,VALID,23.3433,VALID,83,VALID,0,
2014-12-29, 00:25:04,VALID,1010.31,VALID,0,INVALID,136.417,VALID,0,VALID,23.3628,VALID,83,VALID,0,
2014-12-29, 00:26:04,VALID,1010.29,VALID,0,INVALID,136.402,VALID,0,VALID,23.3628,VALID,83,VALID,0,
2014-12-29, 00:27:04,VALID,1010.26,VALID,0,INVALID,136.341,VALID,0,VALID,23.3415,VALID,83,VALID,0,
2014-12-29, 00:28:04,VALID,1010.25,VALID,0,INVALID,136.31,VALID,0,VALID,23.3823,VALID,83,VALID,0,
2014-12-29, 00:29:04,VALID,1010.25,VALID,0,INVALID,136.303,VALID,0,VALID,23.3628,VALID,83,VALID,0,
2014-12-29, 00:30:04,VALID,1010.22,VALID,0,INVALID,136.31,VALID,0,VALID,23.3628,VALID,83,VALID,0,
2014-12-29, 00:31:04,VALID,1010.16,VALID,0,INVALID,136.326,VALID,0,VALID,23.3628,VALID,83,VALID,0,
2014-12-29, 00:32:04,VALID,1010.18,VALID,0,INVALID,136.356,VALID,0,VALID,23.3628,VALID,83,VALID,0,
2014-12-29, 00:33:04,VALID,1010.13,VALID,0,INVALID,136.371,VALID,0,VALID,23.3433,VALID,83,VALID,0,
2014-12-29, 00:34:04,VALID,1010.12,VALID,0,INVALID,136.371,VALID,0,VALID,23.3433,VALID,83,VALID,0,
2014-12-29, 00:35:04,VALID,1010.1,VALID,0,INVALID,136.379,VALID,0,VALID,23.3433,VALID,83,VALID,0,
2014-12-29, 00:36:04,VALID,1010.08,VALID,0,INVALID,136.432,VALID,0,VALID,23.3433,VALID,83,VALID,0,
2014-12-29, 00:37:04,VALID,1010.07,VALID,0,INVALID,136.448,VALID,0,VALID,23.3043,VALID,83,VALID,0,
2014-12-29, 00:38:04,VALID,1010.05,VALID,0,INVALID,136.463,VALID,0,VALID,23.3043,VALID,83,VALID,0,
2014-12-29, 00:39:04,VALID,1010.03,VALID,0,INVALID,136.509,VALID,0,VALID,23.3043,VALID,83,VALID,0,
2014-12-29, 00:40:04,VALID,1010,VALID,0,INVALID,136.539,VALID,0,VALID,23.3238,VALID,83,VALID,0,
2014-12-29, 00:41:04,VALID,1010,VALID,0,INVALID,136.509,VALID,0,VALID,23.3043,VALID,83,VALID,0,
2014-12-29, 00:42:04,VALID,1009.99,VALID,0,INVALID,136.547,VALID,0,VALID,23.3061,VALID,83,VALID,0,
2014-12-29, 00:43:04,VALID,1009.99,VALID,0,INVALID,136.57,VALID,0,VALID,23.3043,VALID,83,VALID,0,
2014-12-29, 00:44:04,VALID,1009.98,VALID,0,INVALID,136.562,VALID,0,VALID,23.2848,VALID,83,VALID,0,
2014-12-29, 00:45:04,VALID,1009.95,VALID,0,INVALID,136.577,VALID,0,VALID,23.2848,VALID,83,VALID,0,
2014-12-29, 00:46:04,VALID,1009.93,VALID,0,INVALID,136.57,VALID,0,VALID,23.2848,VALID,83,VALID,0,
2014-12-29, 00:47:04,VALID,1009.91,VALID,0,INVALID,136.516,VALID,0,VALID,23.2848,VALID,83,VALID,0,
2014-12-29, 00:48:04,VALID,1009.88,VALID,0,INVALID,136.562,VALID,0,VALID,23.2866,VALID,83,VALID,0,
2014-12-29, 00:49:04,VALID,1009.88,VALID,0,INVALID,136.531,VALID,0,VALID,23.3061,VALID,83,VALID,0,
2014-12-29, 00:50:04,VALID,1009.84,VALID,0,INVALID,136.509,VALID,0,VALID,23.2654,VALID,83,VALID,0,
2014-12-29, 00:51:04,VALID,1009.82,VALID,0,INVALID,136.516,VALID,0,VALID,23.2654,VALID,83,VALID,0,
2014-12-29, 00:52:04,VALID,1009.81,VALID,0,INVALID,136.478,VALID,0,VALID,23.2848,VALID,83,VALID,0,
2014-12-29, 00:53:04,VALID,1009.79,VALID,0,INVALID,136.455,VALID,0,VALID,23.2654,VALID,83,VALID,0,
2014-12-29, 00:54:04,VALID,1009.79,VALID,0,INVALID,136.417,VALID,0,VALID,23.2459,VALID,83,VALID,0,
2014-12-29, 00:55:04,VALID,1009.77,VALID,0,INVALID,136.402,VALID,0,VALID,23.2654,VALID,83,VALID,0,
2014-12-29, 00:56:04,VALID,1009.75,VALID,0,INVALID,136.348,VALID,0,VALID,23.2654,VALID,83,VALID,0,
2014-12-29, 00:57:04,VALID,1009.74,VALID,0,INVALID,136.333,VALID,0,VALID,23.2459,VALID,83,VALID,0,
2014-12-29, 00:58:04,VALID,1009.73,VALID,0,INVALID,136.287,VALID,0,VALID,23.2654,VALID,83,VALID,0,
2014-12-29, 00:59:04,VALID,1009.71,VALID,0,INVALID,136.265,VALID,0,VALID,23.2654,VALID,83,VALID,0,
2014-12-29, 01:00:04,VALID,1009.68,VALID,0,INVALID,136.272,VALID,0,VALID,23.2654,VALID,83,VALID,0,
2014-12-29, 01:01:04,VALID,1009.64,VALID,0,INVALID,136.257,VALID,0,VALID,23.2654,VALID,83,VALID,0,
2014-12-29, 01:02:04,VALID,1009.65,VALID,0,INVALID,136.265,VALID,0,VALID,23.2654,VALID,83,VALID,0,
2014-12-29, 01:03:04,VALID,1009.61,VALID,0,INVALID,136.249,VALID,0,VALID,23.2459,VALID,83,VALID,0,
2014-12-29, 01:04:04,VALID,1009.6,VALID,0,INVALID,136.272,VALID,0,VALID,23.2459,VALID,83,VALID,0,
2014-12-29, 01:05:04,VALID,1009.57,VALID,0,INVALID,136.295,VALID,0,VALID,23.2459,VALID,83,VALID,0,
2014-12-29, 01:06:04,VALID,1009.56,VALID,0,INVALID,136.318,VALID,0,VALID,23.2459,VALID,83,VALID,0,
2014-12-29, 01:07:04,VALID,1009.54,VALID,0,INVALID,136.341,VALID,0,VALID,23.2264,VALID,83,VALID,0,
2014-12-29, 01:08:04,VALID,1009.53,VALID,0,INVALID,136.356,VALID,0,VALID,23.2264,VALID,83,VALID,0,
2014-12-29, 01:09:04,VALID,1009.52,VALID,0,INVALID,136.394,VALID,0,VALID,23.2476,VALID,83,VALID,0,
2014-12-29, 01:10:04,VALID,1009.52,VALID,0,INVALID,136.425,VALID,0,VALID,23.2282,VALID,83,VALID,0,
2014-12-29, 01:11:04,VALID,1009.5,VALID,0,INVALID,136.432,VALID,0,VALID,23.2476,VALID,83,VALID,0,
2014-12-29, 01:12:04,VALID,1009.48,VALID,0,INVALID,136.463,VALID,0,VALID,23.2069,VALID,83,VALID,0,
2014-12-29, 01:13:04,VALID,1009.46,VALID,0,INVALID,136.501,VALID,0,VALID,23.1874,VALID,83,VALID,0,
2014-12-29, 01:14:04,VALID,1009.45,VALID,0,INVALID,136.478,VALID,0,VALID,23.1892,VALID,83,VALID,0,
2014-12-29, 01:15:04,VALID,1009.43,VALID,0,INVALID,136.509,VALID,0,VALID,23.1679,VALID,83,VALID,0,
2014-12-29, 01:16:04,VALID,1009.41,VALID,0,INVALID,136.516,VALID,0.112112,VALID,23.1679,VALID,83,VALID,0,
2014-12-29, 01:17:04,VALID,1009.43,VALID,0,INVALID,136.524,VALID,0.112112,VALID,23.1679,VALID,83,VALID,0,
2014-12-29, 01:18:04,VALID,1009.38,VALID,0,INVALID,136.531,VALID,0.112112,VALID,23.1874,VALID,83,VALID,0,
2014-12-29, 01:19:04,VALID,1009.38,VALID,0,INVALID,136.516,VALID,0.112112,VALID,23.1662,VALID,83,VALID,0,
2014-12-29, 01:20:04,VALID,1009.37,VALID,0,INVALID,136.509,VALID,0.112112,VALID,23.1467,VALID,83,VALID,0,
2014-12-29, 01:21:04,VALID,1009.37,VALID,0,INVALID,136.524,VALID,0.112112,VALID,23.1662,VALID,83,VALID,0,
2014-12-29, 01:22:04,VALID,1009.38,VALID,0,INVALID,136.44,VALID,0.112112,VALID,23.1874,VALID,83,VALID,0,
2014-12-29, 01:23:04,VALID,1009.36,VALID,0,INVALID,136.379,VALID,0.112112,VALID,23.1857,VALID,83,VALID,0,
2014-12-29, 01:24:04,VALID,1009.36,VALID,0,INVALID,136.303,VALID,0,VALID,23.1857,VALID,83,VALID,0,
2014-12-29, 01:25:04,VALID,1009.35,VALID,0,INVALID,136.265,VALID,0.112112,VALID,23.2051,VALID,83,VALID,0,
2014-12-29, 01:26:04,VALID,1009.34,VALID,0,INVALID,136.211,VALID,0.112112,VALID,23.2459,VALID,83,VALID,0,
2014-12-29, 01:27:04,VALID,1009.34,VALID,0,INVALID,136.165,VALID,0.112112,VALID,23.2441,VALID,83,VALID,0,
2014-12-29, 01:28:04,VALID,1009.31,VALID,0,INVALID,136.051,VALID,0.112112,VALID,23.2654,VALID,83,VALID,0,
2014-12-29, 01:29:04,VALID,1009.28,VALID,0,INVALID,136.043,VALID,0.112112,VALID,23.2441,VALID,83,VALID,0,
2014-12-29, 01:30:04,VALID,1009.29,VALID,0,INVALID,136.066,VALID,0.112112,VALID,23.2441,VALID,83,VALID,0,
2014-12-29, 01:31:04,VALID,1009.28,VALID,0,INVALID,136.051,VALID,0,VALID,23.2459,VALID,83,VALID,0,
2014-12-29, 01:32:04,VALID,1009.27,VALID,0,INVALID,136.021,VALID,0,VALID,23.2654,VALID,83,VALID,0,
2014-12-29, 01:33:04,VALID,1009.28,VALID,0,INVALID,136.043,VALID,0,VALID,23.2866,VALID,83,VALID,0,
2014-12-29, 01:34:04,VALID,1009.26,VALID,0,INVALID,136.097,VALID,0,VALID,23.2654,VALID,83,VALID,0,
2014-12-29, 01:35:04,VALID,1009.27,VALID,0,INVALID,136.135,VALID,0,VALID,23.2654,VALID,83,VALID,0,
2014-12-29, 01:36:04,VALID,1009.25,VALID,0,INVALID,136.158,VALID,0,VALID,23.2654,VALID,83,VALID,0,
2014-12-29, 01:37:04,VALID,1009.26,VALID,0,INVALID,136.165,VALID,0,VALID,23.2654,VALID,83,VALID,0,
2014-12-29, 01:38:04,VALID,1009.24,VALID,0,INVALID,136.272,VALID,0,VALID,23.2654,VALID,83,VALID,0,
2014-12-29, 01:39:04,VALID,1009.22,VALID,0,INVALID,136.326,VALID,0,VALID,23.2654,VALID,83,VALID,0,
2014-12-29, 01:40:04,VALID,1009.24,VALID,0,INVALID,136.348,VALID,0,VALID,23.2671,VALID,83,VALID,0,
2014-12-29, 01:41:04,VALID,1009.24,VALID,0,INVALID,136.417,VALID,0,VALID,23.2459,VALID,83,VALID,0,
2014-12-29, 01:42:04,VALID,1009.22,VALID,0,INVALID,136.463,VALID,0,VALID,23.2654,VALID,83,VALID,0,
2014-12-29, 01:43:04,VALID,1009.2,VALID,0,INVALID,136.516,VALID,0,VALID,23.2459,VALID,83,VALID,0,
2014-12-29, 01:44:04,VALID,1009.19,VALID,0,INVALID,136.562,VALID,0,VALID,23.2459,VALID,83,VALID,0,
2014-12-29, 01:45:04,VALID,1009.19,VALID,0,INVALID,136.554,VALID,0,VALID,23.2671,VALID,83,VALID,0,
2014-12-29, 01:46:04,VALID,1009.19,VALID,0,INVALID,136.615,VALID,0,VALID,23.2459,VALID,83,VALID,0,
2014-12-29, 01:47:04,VALID,1009.14,VALID,0,INVALID,136.608,VALID,0,VALID,23.2459,VALID,83,VALID,0,
2014-12-29, 01:48:04,VALID,1009.16,VALID,0,INVALID,136.577,VALID,0,VALID,23.2654,VALID,83,VALID,0,
2014-12-29, 01:49:04,VALID,1009.15,VALID,0,INVALID,136.577,VALID,0,VALID,23.2654,VALID,83,VALID,0,
2014-12-29, 01:50:04,VALID,1009.13,VALID,0,INVALID,136.585,VALID,0,VALID,23.2654,VALID,83,VALID,0,
2014-12-29, 01:51:04,VALID,1009.12,VALID,0,INVALID,136.592,VALID,0,VALID,23.2459,VALID,83,VALID,0,
2014-12-29, 01:52:04,VALID,1009.1,VALID,0,INVALID,136.554,VALID,0,VALID,23.2654,VALID,83,VALID,0,
2014-12-29, 01:53:04,VALID,1009.11,VALID,0,INVALID,136.501,VALID,0,VALID,23.2654,VALID,83,VALID,0,
2014-12-29, 01:54:04,VALID,1009.09,VALID,0,INVALID,136.493,VALID,0.112112,VALID,23.2459,VALID,83,VALID,0,
2014-12-29, 01:55:04,VALID,1009.08,VALID,0,INVALID,136.486,VALID,0,VALID,23.2459,VALID,83,VALID,0,
2014-12-29, 01:56:04,VALID,1009.09,VALID,0,INVALID,136.448,VALID,0,VALID,23.2459,VALID,83,VALID,0,
2014-12-29, 01:57:04,VALID,1009.06,VALID,0,INVALID,136.341,VALID,0.112112,VALID,23.2654,VALID,83,VALID,0,
2014-12-29, 01:58:04,VALID,1009.05,VALID,0,INVALID,136.333,VALID,0,VALID,23.2654,VALID,83,VALID,0,
2014-12-29, 01:59:04,VALID,1009.05,VALID,0,INVALID,136.31,VALID,0,VALID,23.2654,VALID,83,VALID,0,
2014-12-29, 02:00:04,VALID,1009.02,VALID,0,INVALID,136.257,VALID,0,VALID,23.2654,VALID,83,VALID,0,
2014-12-29, 02:01:04,VALID,1009.02,VALID,0,INVALID,136.226,VALID,0,VALID,23.2459,VALID,83,VALID,0,
2014-12-29, 02:02:04,VALID,1009.02,VALID,0,INVALID,136.15,VALID,0,VALID,23.2654,VALID,83,VALID,0,
2014-12-29, 02:03:04,VALID,1009,VALID,0,INVALID,136.135,VALID,0,VALID,23.2654,VALID,83,VALID,0,
2014-12-29, 02:04:04,VALID,1009.03,VALID,0,INVALID,136.097,VALID,0,VALID,23.2654,VALID,83,VALID,0,
2014-12-29, 02:05:04,VALID,1009.01,VALID,0,INVALID,136.036,VALID,0,VALID,23.2459,VALID,83,VALID,0,
2014-12-29, 02:06:04,VALID,1008.99,VALID,0,INVALID,136.013,VALID,0,VALID,23.2459,VALID,83,VALID,0,
2014-12-29, 02:07:04,VALID,1008.99,VALID,0,INVALID,135.998,VALID,0,VALID,23.2459,VALID,83,VALID,0,
2014-12-29, 02:08:04,VALID,1008.98,VALID,0,INVALID,135.975,VALID,0,VALID,23.2476,VALID,83,VALID,0,
2014-12-29, 02:09:04,VALID,1009.01,VALID,0,INVALID,135.96,VALID,0,VALID,23.2476,VALID,83,VALID,0,
2014-12-29, 02:10:04,VALID,1008.95,VALID,0,INVALID,135.952,VALID,0.112112,VALID,23.2069,VALID,83,VALID,0,
2014-12-29, 02:11:04,VALID,1008.99,VALID,0,INVALID,135.944,VALID,0,VALID,23.2069,VALID,83,VALID,0,
2014-12-29, 02:12:04,VALID,1008.97,VALID,0,INVALID,135.914,VALID,0.112112,VALID,23.1874,VALID,83,VALID,0,
2014-12-29, 02:13:04,VALID,1008.97,VALID,0,INVALID,135.914,VALID,0.112112,VALID,23.1874,VALID,83,VALID,0,
2014-12-29, 02:14:04,VALID,1008.96,VALID,0,INVALID,135.853,VALID,0,VALID,23.1874,VALID,83,VALID,0,
2014-12-29, 02:15:04,VALID,1008.97,VALID,0,INVALID,135.83,VALID,0,VALID,23.1874,VALID,83,VALID,0,
2014-12-29, 02:16:04,VALID,1008.96,VALID,0,INVALID,135.784,VALID,0,VALID,23.1874,VALID,83,VALID,0,
2014-12-29, 02:17:04,VALID,1008.97,VALID,0,INVALID,135.731,VALID,0,VALID,23.1874,VALID,83,VALID,0,
2014-12-29, 02:18:04,VALID,1008.99,VALID,0,INVALID,135.685,VALID,0,VALID,23.1874,VALID,83,VALID,0,
2014-12-29, 02:19:04,VALID,1009.02,VALID,0,INVALID,135.586,VALID,0,VALID,23.1874,VALID,83,VALID,0,
2014-12-29, 02:20:04,VALID,1009.03,VALID,0,INVALID,135.533,VALID,0,VALID,23.1874,VALID,83,VALID,0,
2014-12-29, 02:21:04,VALID,1009.03,VALID,0,INVALID,135.449,VALID,0,VALID,23.1874,VALID,83,VALID,0,
2014-12-29, 02:22:04,VALID,1009.03,VALID,0,INVALID,135.411,VALID,0,VALID,23.2069,VALID,83,VALID,0,
2014-12-29, 02:23:04,VALID,1009.02,VALID,0,INVALID,135.266,VALID,0.112112,VALID,23.2282,VALID,83,VALID,0,
2014-12-29, 02:24:04,VALID,1009.02,VALID,0,INVALID,135.227,VALID,0,VALID,23.2069,VALID,83,VALID,0,
2014-12-29, 02:25:04,VALID,1009.02,VALID,0,INVALID,135.105,VALID,0,VALID,23.2069,VALID,83,VALID,0,
2014-12-29, 02:26:04,VALID,1009.02,VALID,0,INVALID,135.014,VALID,0,VALID,23.2069,VALID,83,VALID,0,
2014-12-29, 02:27:04,VALID,1009.04,VALID,0,INVALID,134.953,VALID,0,VALID,23.2264,VALID,83,VALID,0,
2014-12-29, 02:28:04,VALID,1009.01,VALID,0,INVALID,134.877,VALID,0,VALID,23.2459,VALID,83,VALID,0,
2014-12-29, 02:29:04,VALID,1009.05,VALID,0,INVALID,134.8,VALID,0,VALID,23.2459,VALID,83,VALID,0,
2014-12-29, 02:30:04,VALID,1009.04,VALID,0,INVALID,134.732,VALID,0,VALID,23.2459,VALID,83,VALID,0,
2014-12-29, 02:31:04,VALID,1009.03,VALID,0,INVALID,134.64,VALID,0,VALID,23.2459,VALID,83,VALID,0,
2014-12-29, 02:32:04,VALID,1009.04,VALID,0,INVALID,134.572,VALID,0,VALID,23.2459,VALID,83,VALID,0,
2014-12-29, 02:33:04,VALID,1009.06,VALID,0,INVALID,134.488,VALID,0,VALID,23.2459,VALID,83,VALID,0,
2014-12-29, 02:34:04,VALID,1009.03,VALID,0,INVALID,134.465,VALID,0,VALID,23.2654,VALID,83,VALID,0,
2014-12-29, 02:35:04,VALID,1009.06,VALID,0,INVALID,134.396,VALID,0,VALID,23.2459,VALID,83,VALID,0,
2014-12-29, 02:36:04,VALID,1009.07,VALID,0,INVALID,134.32,VALID,0,VALID,23.2671,VALID,83,VALID,0,
2014-12-29, 02:37:04,VALID,1009.05,VALID,0,INVALID,134.305,VALID,0,VALID,23.2671,VALID,83,VALID,0,
2014-12-29, 02:38:04,VALID,1009.07,VALID,0,INVALID,134.274,VALID,0,VALID,23.2459,VALID,83,VALID,0,
2014-12-29, 02:39:04,VALID,1009.06,VALID,0,INVALID,134.183,VALID,0,VALID,23.2459,VALID,83,VALID,0,
2014-12-29, 02:40:04,VALID,1009.08,VALID,0,INVALID,134.145,VALID,0,VALID,23.2459,VALID,83,VALID,0,
2014-12-29, 02:41:04,VALID,1009.07,VALID,0,INVALID,134.137,VALID,0,VALID,23.2459,VALID,83,VALID,0,
2014-12-29, 02:42:04,VALID,1009.07,VALID,0,INVALID,134.084,VALID,0,VALID,23.2459,VALID,83,VALID,0,
2014-12-29, 02:43:04,VALID,1009.08,VALID,0,INVALID,134.053,VALID,0.112112,VALID,23.2459,VALID,83,VALID,0,
2014-12-29, 02:44:04,VALID,1009.09,VALID,0,INVALID,133.992,VALID,0,VALID,23.2459,VALID,83,VALID,0,
2014-12-29, 02:45:04,VALID,1009.09,VALID,0,INVALID,133.969,VALID,0,VALID,23.2459,VALID,83,VALID,0,
2014-12-29, 02:46:04,VALID,1009.1,VALID,0,INVALID,133.923,VALID,0,VALID,23.2459,VALID,83,VALID,0,
2014-12-29, 02:47:04,VALID,1009.12,VALID,0,INVALID,133.908,VALID,0.112112,VALID,23.2264,VALID,83,VALID,0,
2014-12-29, 02:48:04,VALID,1009.11,VALID,0,INVALID,133.893,VALID,0,VALID,23.2264,VALID,83,VALID,0,
2014-12-29, 02:49:04,VALID,1009.12,VALID,0,INVALID,133.84,VALID,0,VALID,23.2264,VALID,83,VALID,0,
2014-12-29, 02:50:04,VALID,1009.13,VALID,0,INVALID,133.756,VALID,0,VALID,23.2264,VALID,83,VALID,0,
2014-12-29, 02:51:04,VALID,1009.12,VALID,0,INVALID,133.695,VALID,0,VALID,23.2459,VALID,83,VALID,0,
2014-12-29, 02:52:04,VALID,1009.11,VALID,0,INVALID,133.679,VALID,0,VALID,23.2264,VALID,83,VALID,0,
2014-12-29, 02:53:04,VALID,1009.09,VALID,0,INVALID,133.626,VALID,0,VALID,23.2264,VALID,83,VALID,0,
2014-12-29, 02:54:04,VALID,1009.1,VALID,0,INVALID,133.535,VALID,0,VALID,23.2264,VALID,83,VALID,0,
2014-12-29, 02:55:04,VALID,1009.09,VALID,0,INVALID,133.527,VALID,0,VALID,23.2069,VALID,83,VALID,0,
2014-12-29, 02:56:04,VALID,1009.06,VALID,0,INVALID,133.474,VALID,0,VALID,23.2069,VALID,83,VALID,0,
2014-12-29, 02:57:04,VALID,1009.06,VALID,0,INVALID,133.352,VALID,0,VALID,23.2264,VALID,83,VALID,0,
2014-12-29, 02:58:04,VALID,1009.06,VALID,0,INVALID,133.275,VALID,0,VALID,23.2264,VALID,83,VALID,0,
2014-12-29, 02:59:04,VALID,1009.02,VALID,0,INVALID,133.23,VALID,0,VALID,23.2264,VALID,83,VALID,0,
2014-12-29, 03:00:04,VALID,1009.03,VALID,0,INVALID,133.199,VALID,0,VALID,23.2069,VALID,83,VALID,0,
2014-12-29, 03:01:04,VALID,1009.03,VALID,0,INVALID,133.138,VALID,0,VALID,23.2069,VALID,83,VALID,0,
2014-12-29, 03:02:04,VALID,1009.03,VALID,0,INVALID,133.031,VALID,0,VALID,23.2069,VALID,83,VALID,0,
2014-12-29, 03:03:04,VALID,1008.99,VALID,0,INVALID,133.001,VALID,0,VALID,23.2069,VALID,83,VALID,0,
2014-12-29, 03:04:04,VALID,1008.99,VALID,0,INVALID,132.909,VALID,0,VALID,23.1679,VALID,83,VALID,0,
2014-12-29, 03:05:04,VALID,1008.98,VALID,0,INVALID,132.825,VALID,0,VALID,23.1874,VALID,83,VALID,0,
2014-12-29, 03:06:04,VALID,1008.97,VALID,0,INVALID,132.749,VALID,0,VALID,23.2069,VALID,83,VALID,0,
2014-12-29, 03:07:04,VALID,1009,VALID,0,INVALID,132.688,VALID,0,VALID,23.1874,VALID,83,VALID,0,
2014-12-29, 03:08:04,VALID,1008.97,VALID,0,INVALID,132.612,VALID,0,VALID,23.2069,VALID,83,VALID,0,
2014-12-29, 03:09:04,VALID,1008.99,VALID,0,INVALID,132.581,VALID,0,VALID,23.1874,VALID,83,VALID,0,
2014-12-29, 03:10:04,VALID,1008.99,VALID,0,INVALID,132.513,VALID,0,VALID,23.2069,VALID,83,VALID,0,
2014-12-29, 03:11:04,VALID,1008.99,VALID,0,INVALID,132.398,VALID,0,VALID,23.2069,VALID,83,VALID,0,
2014-12-29, 03:12:04,VALID,1008.97,VALID,0,INVALID,132.33,VALID,0,VALID,23.1874,VALID,83,VALID,0,
2014-12-29, 03:13:04,VALID,1008.99,VALID,0,INVALID,132.269,VALID,0,VALID,23.1874,VALID,83,VALID,0,
2014-12-29, 03:14:04,VALID,1008.95,VALID,0,INVALID,132.192,VALID,0,VALID,23.1874,VALID,83,VALID,0,
2014-12-29, 03:15:04,VALID,1008.95,VALID,0,INVALID,132.124,VALID,0,VALID,23.2087,VALID,83,VALID,0,
2014-12-29, 03:16:04,VALID,1008.94,VALID,0,INVALID,132.078,VALID,0,VALID,23.1874,VALID,83,VALID,0,
2014-12-29, 03:17:04,VALID,1008.92,VALID,0,INVALID,131.987,VALID,0,VALID,23.2264,VALID,83,VALID,0,
2014-12-29, 03:18:04,VALID,1008.91,VALID,0,INVALID,131.918,VALID,0,VALID,23.2069,VALID,83,VALID,0,
2014-12-29, 03:19:04,VALID,1008.92,VALID,0,INVALID,131.872,VALID,0.112112,VALID,23.2264,VALID,83,VALID,0,
2014-12-29, 03:20:04,VALID,1008.91,VALID,0,INVALID,131.804,VALID,0.112112,VALID,23.2264,VALID,83,VALID,0,
2014-12-29, 03:21:04,VALID,1008.89,VALID,0,INVALID,131.758,VALID,0,VALID,23.1857,VALID,83,VALID,0,
2014-12-29, 03:22:04,VALID,1008.91,VALID,0,INVALID,131.704,VALID,0,VALID,23.2069,VALID,83,VALID,0,
2014-12-29, 03:23:04,VALID,1008.92,VALID,0,INVALID,131.704,VALID,0.112112,VALID,23.1874,VALID,83,VALID,0,
2014-12-29, 03:24:04,VALID,1008.92,VALID,0,INVALID,131.575,VALID,0,VALID,23.1874,VALID,83,VALID,0,
2014-12-29, 03:25:04,VALID,1008.92,VALID,0,INVALID,131.544,VALID,0,VALID,23.1662,VALID,83,VALID,0,
2014-12-29, 03:26:04,VALID,1008.92,VALID,0,INVALID,131.514,VALID,0,VALID,23.1874,VALID,83,VALID,0,
2014-12-29, 03:27:04,VALID,1008.92,VALID,0,INVALID,131.476,VALID,0,VALID,23.1874,VALID,83,VALID,0,
2014-12-29, 03:28:04,VALID,1008.91,VALID,0,INVALID,131.437,VALID,0,VALID,23.1679,VALID,83,VALID,0,
2014-12-29, 03:29:04,VALID,1008.92,VALID,0,INVALID,131.384,VALID,0,VALID,23.1679,VALID,83,VALID,0,
2014-12-29, 03:30:04,VALID,1008.94,VALID,0,INVALID,131.354,VALID,0,VALID,23.1679,VALID,83,VALID,0,
2014-12-29, 03:31:04,VALID,1008.91,VALID,0,INVALID,131.277,VALID,0,VALID,23.1679,VALID,83,VALID,0,
2014-12-29, 03:32:04,VALID,1008.92,VALID,0,INVALID,131.209,VALID,0,VALID,23.1679,VALID,83,VALID,0,
2014-12-29, 03:33:04,VALID,1008.92,VALID,0,INVALID,131.209,VALID,0,VALID,23.1679,VALID,83,VALID,0,
2014-12-29, 03:34:04,VALID,1008.9,VALID,0,INVALID,131.125,VALID,0,VALID,23.1679,VALID,83,VALID,0,
2014-12-29, 03:35:04,VALID,1008.91,VALID,0,INVALID,131.064,VALID,0.112112,VALID,23.1679,VALID,83,VALID,0,
2014-12-29, 03:36:04,VALID,1008.88,VALID,0,INVALID,130.995,VALID,0,VALID,23.1679,VALID,83,VALID,0,
2014-12-29, 03:37:04,VALID,1008.89,VALID,0,INVALID,130.911,VALID,0,VALID,23.1892,VALID,83,VALID,0,
2014-12-29, 03:38:04,VALID,1008.91,VALID,0,INVALID,130.85,VALID,0,VALID,23.1874,VALID,83,VALID,0,
2014-12-29, 03:39:04,VALID,1008.86,VALID,0,INVALID,130.766,VALID,0,VALID,23.1874,VALID,83,VALID,0,
2014-12-29, 03:40:04,VALID,1008.88,VALID,0,INVALID,130.713,VALID,0,VALID,23.1874,VALID,83,VALID,0,
2014-12-29, 03:41:04,VALID,1008.89,VALID,0,INVALID,130.644,VALID,0,VALID,23.2069,VALID,83,VALID,0,
2014-12-29, 03:42:04,VALID,1008.92,VALID,0,INVALID,130.576,VALID,0,VALID,23.1874,VALID,83,VALID,0,
2014-12-29, 03:43:04,VALID,1008.91,VALID,0,INVALID,130.492,VALID,0,VALID,23.2069,VALID,83,VALID,0,
2014-12-29, 03:44:04,VALID,1008.9,VALID,0,INVALID,130.439,VALID,0,VALID,23.2282,VALID,83,VALID,0,
2014-12-29, 03:45:04,VALID,1008.9,VALID,0,INVALID,130.332,VALID,0,VALID,23.2069,VALID,83,VALID,0,
2014-12-29, 03:46:04,VALID,1008.88,VALID,0,INVALID,130.271,VALID,0,VALID,23.2069,VALID,83,VALID,0,
2014-12-29, 03:47:04,VALID,1008.84,VALID,0,INVALID,130.179,VALID,0,VALID,23.2264,VALID,83,VALID,0,
2014-12-29, 03:48:04,VALID,1008.86,VALID,0,INVALID,130.164,VALID,0,VALID,23.2282,VALID,83,VALID,0,
2014-12-29, 03:49:04,VALID,1008.82,VALID,0,INVALID,130.095,VALID,0,VALID,23.2069,VALID,83,VALID,0,
2014-12-29, 03:50:04,VALID,1008.82,VALID,0,INVALID,129.981,VALID,0,VALID,23.2282,VALID,83,VALID,0,
2014-12-29, 03:51:04,VALID,1008.81,VALID,0,INVALID,129.92,VALID,0,VALID,23.2069,VALID,83,VALID,0,
2014-12-29, 03:52:04,VALID,1008.82,VALID,0,INVALID,129.859,VALID,0,VALID,23.2476,VALID,83,VALID,0,
2014-12-29, 03:53:04,VALID,1008.82,VALID,0,INVALID,129.783,VALID,0,VALID,23.2069,VALID,83,VALID,0,
2014-12-29, 03:54:04,VALID,1008.84,VALID,0,INVALID,129.714,VALID,0,VALID,23.2069,VALID,83,VALID,0,
2014-12-29, 03:55:04,VALID,1008.8,VALID,0,INVALID,129.615,VALID,0,VALID,23.2264,VALID,83,VALID,0,